Home > Weather > Spokane > Past weeks

Flag for USA Past Weather in Spokane, Washington, USA — Yesterday and Last 2 Weeks

Now
63 °F

Clear.


Feels Like: 63 °F
Forecast: 57 / 86 °F
Wind: 3 mph from Northeast

Location: Felts Field

Current Time: Jul 1, 2016 at 2:58:48 AM

Latest Report: Jul 1, 2016 at 1:53 AM


Visibility: 10 mi

Pressure: 29.90 "Hg (27.97 "Hg at 569m altitude)

Humidity: 41%

Dew Point: 39 °F

Location of SpokaneLocation

Past Weather in Spokane — Graph

°F

Spokane Temperature Yesterday

Maximum temperature yesterday: 90 °F (at 3:53 PM)
Minimum temperature yesterday: 64 °F (at 2:53 AM)
Average temperature yesterday: 76 °F

High & Low Weather Summary for the Past Weeks

 TemperatureHumidityPressure
High95 °F (Jun 29, 4:53 PM)93% (Jun 17, 2:53 AM)30.40 "Hg (Jun 17, 2:53 AM)
Low42 °F (Jun 17, 4:53 AM)16% (Jun 28, 4:53 PM)29.80 "Hg (Jun 16, 12:53 AM)
Average66 °F51%30.06 "Hg
* Reported Jun 16 12:53 AM — Jul 1 12:53 AM, Spokane, Weather by CustomWeather, © 2016

Note: Actual official high and low records may vary slightly from our data, if they occured in-between our weather recording intervals... More about our weather records

Advertising

Spokane Weather History for the Previous 24 Hours

Scroll right to see more
 ConditionsComfort  
Time TempWeatherWind HumidityBarometerVisibility
12:53 AM
Fri, Jul 1
65 °FClear.5 mph37%29.90 "Hg10 mi
11:53 PM
Thu, Jun 30
64 °FClear.3 mph47%29.90 "Hg10 mi
10:53 PM68 °FClear.No wind31%29.89 "Hg10 mi
9:53 PM72 °FClear.No wind29%29.88 "Hg10 mi
8:53 PM80 °FSunny.3 mph24%29.87 "Hg10 mi
7:53 PM86 °FSunny.6 mph20%29.85 "Hg10 mi
6:53 PM87 °FSunny.7 mph20%29.86 "Hg10 mi
5:53 PM89 °FSunny.8 mph19%29.87 "Hg10 mi
4:53 PM89 °FSunny.6 mph20%29.89 "Hg10 mi
3:53 PM90 °FSunny.9 mph22%29.91 "Hg10 mi
2:53 PM89 °FSunny.12 mph22%29.93 "Hg10 mi
1:53 PM88 °FSunny.8 mph25%29.95 "Hg10 mi
12:53 PM85 °FSunny.12 mph30%29.98 "Hg10 mi
11:53 AM80 °FSunny.5 mph36%29.99 "Hg10 mi
10:53 AM79 °FSunny.8 mph39%30.00 "Hg10 mi
9:53 AM75 °FSunny.14 mph45%30.00 "Hg10 mi
8:53 AM72 °FSunny.10 mph49%30.00 "Hg10 mi
7:53 AM69 °FSunny.9 mph55%29.98 "Hg10 mi
6:53 AM68 °FSunny.13 mph57%29.98 "Hg10 mi
5:53 AM68 °FClear.9 mph55%29.96 "Hg10 mi
4:53 AM64 °FClear.No wind61%29.93 "Hg10 mi
3:53 AM65 °FClear.3 mph61%29.92 "Hg10 mi
2:53 AM64 °FPassing clouds.3 mph61%29.90 "Hg10 mi
Weather by CustomWeather, © 2016

See weather overviewHow to use our weather pages